Low Moor, IA

8:46 AM CST on February 23, 2017 (GMT -0600)
Clinton Municipal

Weather History for KCWI - November, 2010

Change the Weather History Date:

Saturday, November 13, 2010

  Actual Average Record
Temperature  
Mean Temperature 44 °F -  
Max Temperature 50 °F 46 °F 75 °F (1989)
Min Temperature 37 °F 29 °F 4 °F (1986)
Degree Days  
Heating Degree Days 22    
Moisture  
Dew Point -8 °F    
Average Humidity 12    
Maximum Humidity 12    
Minimum Humidity 11    
Precipitation  
Precipitation 0.11 in - - ()
Sea Level Pressure  
Sea Level Pressure 29.89 in    
Wind  
Wind Speed 18 mph (SSW)    
Max Wind Speed 29 mph    
Max Gust Speed 38 mph    
Visibility 9 miles    
Events      
Averages and records for this station are not official NWS values.
T = Trace of Precipitation, MM = Missing Value Source: NWS Daily Summary

Daily Weather History Graph

Daily Weather History Graph

Search for Another Location

Airport or City:

Trip Planner

Search our weather history database for the weather conditions in past years. The results will help you decide how hot, cold, wet, or windy it might be!

Date:

Astronomy

Nov. 13, 2010 Rise Set
Actual Time 6:48 AM CST 4:42 PM CST
Civil Twilight 6:18 AM CST 5:12 PM CST
Nautical Twilight 5:44 AM CST 5:45 PM CST
Astronomical Twilight 5:12 AM CST 6:18 PM CST
Moon 12:42 PM CST (11/13) 11:52 PM CST (11/13)
Length of Visible Light 10h 53m
Length of Day
9h 54m
Waxing Crescent, 51% of the Moon is Illuminated
Nov 13
Waxing Crescent
Nov 21
Full
Nov 28
Last Quarter
Dec 5
New
Dec 13
First Quarter

Hourly Weather History & Observations

Time (CST) Temp. Windchill Dew Point Humidity Pressure Visibility Wind Dir Wind Speed Gust Speed Precip Events Conditions
12:15 AM 44.6 °F 37.4 °F -5.8 °F 12% 30.11 in 10.0 mi East 16.1 mph - 0.01 in   Overcast
12:35 AM 44.6 °F 36.6 °F -5.8 °F 12% 30.07 in 8.0 mi ENE 19.6 mph - 0.01 in   Overcast
12:55 AM 44.6 °F 36.9 °F -5.8 °F 12% 30.05 in 8.0 mi ENE 18.4 mph - 0.01 in   Overcast
1:15 AM 46.4 °F 39.0 °F -5.8 °F 11% 30.03 in 8.0 mi ENE 19.6 mph - N/A   Overcast
1:35 AM 46.4 °F 39.2 °F -5.8 °F 11% 30.02 in 8.0 mi East 18.4 mph - N/A   Overcast
1:55 AM 46.4 °F 39.5 °F -5.8 °F 11% 30.01 in 8.0 mi East 17.3 mph - N/A   Overcast
2:15 AM 46.4 °F 39.8 °F -5.8 °F 11% 30.01 in 8.0 mi East 16.1 mph - 0.01 in   Overcast
2:55 AM 46.4 °F 39.8 °F -4.0 °F 12% 30.00 in 7.0 mi East 16.1 mph - 0.03 in   Overcast
3:35 AM 46.4 °F 40.1 °F -4.0 °F 12% 29.97 in 5.0 mi East 15.0 mph - 0.02 in   Overcast
3:55 AM 46.4 °F 39.8 °F -4.0 °F 12% 29.95 in 5.0 mi East 16.1 mph 20.7 mph 0.05 in   Overcast
4:15 AM 46.4 °F 40.4 °F -4.0 °F 12% 29.94 in 5.0 mi East 13.8 mph - 0.01 in   Overcast
4:35 AM 48.2 °F - -4.0 °F 11% 29.92 in 5.0 mi East 15.0 mph - 0.01 in   Overcast
4:55 AM 48.2 °F - -4.0 °F 11% 29.90 in 7.0 mi East 15.0 mph - 0.02 in   Mostly Cloudy
5:15 AM 48.2 °F - -4.0 °F 11% 29.88 in 6.0 mi East 16.1 mph - N/A   Overcast
5:35 AM 48.2 °F - -4.0 °F 11% 29.86 in 7.0 mi East 15.0 mph - N/A   Overcast
5:55 AM 48.2 °F - -2.2 °F 12% 29.86 in 10.0 mi ESE 15.0 mph - N/A   Overcast
6:15 AM 48.2 °F - -2.2 °F 12% 29.85 in 10.0 mi ESE 13.8 mph - N/A   Overcast
6:55 AM - - - N/A% 29.85 in 10.0 mi SE 11.5 mph - N/A   Overcast
7:15 AM - - - N/A% 29.85 in 10.0 mi South 11.5 mph - N/A   Overcast
7:35 AM - - - N/A% 29.85 in 10.0 mi SSE 11.5 mph - N/A   Overcast
7:55 AM 50.0 °F - -2.2 °F 12% 29.86 in 7.0 mi South 13.8 mph - N/A   Overcast
8:15 AM 50.0 °F - -2.2 °F 12% 29.86 in 4.0 mi SSW 16.1 mph - N/A   Overcast
8:35 AM 46.4 °F 38.7 °F -4.0 °F 12% 29.87 in 10.0 mi WSW 20.7 mph - N/A   Overcast
8:55 AM 44.6 °F 36.1 °F -5.8 °F 12% 29.87 in 10.0 mi SW 21.9 mph 27.6 mph N/A   Overcast
9:15 AM 42.8 °F 34.0 °F -7.6 °F 12% 29.87 in 10.0 mi SW 20.7 mph 24.2 mph N/A   Overcast
9:35 AM 42.8 °F 35.1 °F -7.6 °F 12% 29.87 in 10.0 mi SW 16.1 mph - N/A   Overcast
9:55 AM 42.8 °F 35.1 °F -7.6 °F 12% 29.87 in 10.0 mi SW 16.1 mph 20.7 mph N/A   Overcast
10:15 AM 42.8 °F 34.5 °F -7.6 °F 12% 29.87 in 10.0 mi SW 18.4 mph 24.2 mph N/A   Overcast
10:35 AM 42.8 °F 34.0 °F -7.6 °F 12% 29.87 in 10.0 mi SW 20.7 mph - N/A   Overcast
10:55 AM 42.8 °F 34.0 °F -9.4 °F 11% 29.86 in 10.0 mi SSW 20.7 mph 25.3 mph N/A   Overcast
11:15 AM 42.8 °F 34.0 °F -7.6 °F 12% 29.86 in 10.0 mi SSW 20.7 mph - N/A   Overcast
11:35 AM 42.8 °F 34.8 °F -9.4 °F 11% 29.86 in 10.0 mi SW 17.3 mph 25.3 mph N/A   Overcast
11:55 AM 41.0 °F 31.6 °F -9.4 °F 12% 29.85 in 10.0 mi SSW 20.7 mph 26.5 mph N/A   Overcast
12:15 PM 41.0 °F 31.1 °F -9.4 °F 12% 29.84 in 10.0 mi SSW 23.0 mph 29.9 mph N/A   Overcast
12:35 PM 41.0 °F 31.9 °F -9.4 °F 12% 29.84 in 10.0 mi SW 19.6 mph 28.8 mph N/A   Overcast
12:55 PM 41.0 °F 31.6 °F -9.4 °F 12% 29.84 in 10.0 mi SW 20.7 mph 27.6 mph N/A   Overcast
1:15 PM 39.2 °F 28.7 °F -9.4 °F 12% 29.83 in 10.0 mi SW 23.0 mph - N/A   Overcast
1:35 PM 39.2 °F 29.0 °F -9.4 °F 12% 29.83 in 10.0 mi SW 21.9 mph 29.9 mph N/A   Overcast
1:55 PM 39.2 °F 28.5 °F -9.4 °F 12% 29.82 in 10.0 mi SW 24.2 mph 31.1 mph N/A   Overcast
2:15 PM 39.2 °F 28.5 °F -9.4 °F 12% 29.83 in 10.0 mi SW 24.2 mph 32.2 mph N/A   Overcast
2:35 PM 39.2 °F 29.3 °F -9.4 °F 12% 29.83 in 10.0 mi SW 20.7 mph 26.5 mph N/A   Overcast
2:55 PM 39.2 °F 28.7 °F -9.4 °F 12% 29.83 in 10.0 mi SW 23.0 mph - N/A   Overcast
3:15 PM 39.2 °F 28.5 °F -11.2 °F 11% 29.83 in 8.0 mi SW 24.2 mph 28.8 mph N/A   Overcast
3:35 PM - - - N/A% 29.83 in 10.0 mi WSW 24.2 mph 29.9 mph N/A   Overcast
3:55 PM - - - N/A% 29.83 in 10.0 mi WSW 25.3 mph 31.1 mph N/A   Overcast
4:15 PM - - - N/A% 29.84 in 10.0 mi WSW 21.9 mph 29.9 mph N/A   Overcast
4:55 PM 37.4 °F 26.4 °F -11.2 °F 12% 29.85 in 10.0 mi WSW 23.0 mph 29.9 mph N/A   Overcast
5:15 PM - - - N/A% 29.84 in 10.0 mi WSW 25.3 mph 33.4 mph N/A   Overcast
5:35 PM - - - N/A% 29.85 in 10.0 mi WSW 25.3 mph 35.7 mph N/A   Overcast
5:55 PM 37.4 °F 25.9 °F -11.2 °F 12% 29.85 in 10.0 mi WSW 25.3 mph 28.8 mph N/A   Overcast
6:15 PM 37.4 °F 26.1 °F -11.2 °F 12% 29.86 in 10.0 mi WSW 24.2 mph 32.2 mph N/A   Overcast
6:35 PM - - - N/A% 29.86 in 10.0 mi WSW 28.8 mph 38.0 mph N/A   Overcast
6:55 PM 37.4 °F 25.9 °F -11.2 °F 12% 29.86 in 10.0 mi WSW 25.3 mph 29.9 mph N/A   Overcast
7:15 PM 37.4 °F 26.6 °F -11.2 °F 12% 29.87 in 10.0 mi WSW 21.9 mph 34.5 mph N/A   Overcast
7:35 PM 37.4 °F 26.4 °F -11.2 °F 12% 29.87 in 10.0 mi WSW 23.0 mph 33.4 mph N/A   Overcast
7:55 PM 37.4 °F 27.2 °F -11.2 °F 12% 29.87 in 10.0 mi WSW 19.6 mph 26.5 mph N/A   Overcast
8:15 PM 37.4 °F 26.6 °F -11.2 °F 12% 29.87 in 10.0 mi WSW 21.9 mph 27.6 mph N/A   Overcast
8:35 PM 37.4 °F 28.2 °F -11.2 °F 12% 29.88 in 10.0 mi WSW 16.1 mph 26.5 mph N/A   Overcast
8:55 PM 37.4 °F 26.9 °F -11.2 °F 12% 29.88 in 10.0 mi WSW 20.7 mph 26.5 mph N/A   Overcast
9:15 PM 37.4 °F 26.4 °F -11.2 °F 12% 29.88 in 10.0 mi WSW 23.0 mph 27.6 mph N/A   Overcast
9:35 PM 37.4 °F 26.4 °F -11.2 °F 12% 29.88 in 10.0 mi WSW 23.0 mph 29.9 mph N/A   Overcast
9:55 PM 37.4 °F 26.6 °F -11.2 °F 12% 29.88 in 10.0 mi West 21.9 mph 28.8 mph N/A   Overcast
10:15 PM 37.4 °F 26.9 °F -11.2 °F 12% 29.88 in 10.0 mi WSW 20.7 mph 27.6 mph N/A   Overcast
10:35 PM 37.4 °F 26.1 °F -11.2 °F 12% 29.88 in 10.0 mi West 24.2 mph 27.6 mph N/A   Overcast
10:55 PM 37.4 °F 27.2 °F -11.2 °F 12% 29.88 in 10.0 mi West 19.6 mph 27.6 mph N/A   Overcast
11:15 PM 37.4 °F 25.6 °F -11.2 °F 12% 29.88 in 10.0 mi West 26.5 mph 29.9 mph N/A   Overcast
11:35 PM 37.4 °F 27.8 °F -11.2 °F 12% 29.89 in 10.0 mi West 17.3 mph 26.5 mph N/A   Overcast
11:55 PM 37.4 °F 26.9 °F -11.2 °F 12% 29.89 in 10.0 mi West 20.7 mph 26.5 mph N/A   Overcast